User: anonymous   Login
Location: Unspecified
(0.0000°N, 0.0000°E)
Time: 17:37:54
(UTC+02:00)
Language:

Ariane H10 - Orbit

View from above orbital plane
View from above orbital plane
View from above satellite
View from above satellite

Ground track
Ground track

The orbit data is extracted from the following two-line orbital elements,

1 21727U 91067B   16269.65974241 -.00000124  00000-0  40745-3 0  9995
2 21727   4.2555  77.8788 7186101 297.8841   8.4273  2.31856928171805
Epoch (UTC): 25 September 2016 15:50:01
Eccentricity: 0.7186101
inclination: 4.2555°
perigee height: 407 km
apogee height: 35063 km
right ascension of ascending node: 77.8788°
argument of perigee: 297.8841°
revolutions per day: 2.31856928
mean anomaly at epoch: 8.4273°
orbit number at epoch: 17180

The dashed part of the orbit path shows where the satellite is in the earth's shadow,  

DLR